Total_Precipitation_Accumulation
0.12 0.02 0.01 0.01 0.00 0.00 0.00 0.00 0.00 0.00 0.01 0.01 0.01 0.01 0.00 0.00 0.02 0.01 0.06 0.01 0.01 0.01 0.01 0.01 0.00 0.02 0.01 0.00 0.01 0.01 0.02 0.03 0.02 0.02 0.02 0.02 0.02 0.02 0.07 0.08 0.04 0.08 0.02 0.01 0.01 0.02 0.01 0.02 0.01 0.02 0.02 0.03 0.02 0.01 0.02 0.03 0.05 0.12 0.05 0.06 0.10 0.14 0.09 0.24 0.22 0.05 0.06 0.06 0.04 0.10 0.05 0.08 0.04 0.01 0.02 0.04 0.04 0.04 0.01 0.02 0.00 0.02 0.01 0.03 0.02
0.03 0.04 0.01 0.00 0.01 0.00 0.00 0.00 0.00 0.00 0.00 0.01 0.01 0.02 0.02 0.00 0.03 0.01 0.02 0.01 0.00 0.00 0.03 0.01 0.02 0.01 0.02 0.00 0.00 0.01 0.08 0.01 0.01 0.01 0.02 0.02 0.02 0.03 0.04 0.02 0.03 0.01 0.01 0.02 0.01 0.01 0.01 0.01 0.02 0.02 0.02 0.03 0.02 0.02 0.05 0.01 0.02 0.07 0.08 0.04 0.06 0.10 0.13 0.10 0.04 0.15 0.08 0.04 0.01 0.03 0.02 0.02 0.06 0.05 0.07 0.04 0.09 0.02 0.03 0.02 0.03 0.01 0.01 0.00 0.05
0.18 0.14 0.04 0.03 0.02 0.03 0.00 0.00 0.01 0.00 0.00 0.00 0.01 0.01 0.01 0.01 0.00 0.01 0.01 0.04 0.02 0.01 0.01 0.03 0.01 0.02 0.01 0.01 0.01 0.02 0.02 0.02 0.01 0.02 0.03 0.04 0.01 0.02 0.02 0.03 0.03 0.01 0.01 0.02 0.02 0.01 0.01 0.01 0.01 0.01 0.01 0.03 0.01 0.01 0.02 0.03 0.03 0.03 0.09 0.07 0.06 0.06 0.19 0.16 0.19 0.15 0.09 0.06 0.03 0.03 0.04 0.08 0.04 0.08 0.02 0.02 0.02 0.01 0.03 0.04 0.02 0.02 0.00 0.00 0.01
0.89 0.45 0.56 0.33 0.04 0.04 0.08 0.04 0.00 0.00 0.00 0.03 0.03 0.10 0.05 0.01 0.02 0.01 0.01 0.00 0.01 0.02 0.01 0.06 0.09 0.26 0.21 0.07 0.04 0.05 0.04 0.06 0.03 0.06 0.04 0.07 0.07 0.02 0.10 0.17 0.06 0.09 0.02 0.03 0.03 0.02 0.02 0.03 0.11 0.14 0.06 0.03 0.10 0.16 0.35 0.09 0.05 0.02 0.04 0.04 0.03 0.07 0.10 0.09 0.12 0.13 0.10 0.12 0.08 0.16 0.05 0.03 0.10 0.02 0.01 0.02 0.01 0.02 0.03 0.02 0.00 0.00 0.00 0.02 0.02
1.35 0.53 0.61 0.62 0.53 0.06 0.11 0.11 0.04 0.04 0.04 0.08 0.05 0.05 0.04 0.06 0.03 0.02 0.01 0.01 0.04 0.11 0.05 0.06 0.13 0.17 0.15 0.13 0.13 0.10 0.14 0.06 0.08 0.22 0.16 0.19 0.21 0.33 0.43 0.28 0.14 0.05 0.01 0.01 0.02 0.02 0.03 0.06 0.12 0.23 0.09 0.09 0.11 0.09 0.16 0.13 0.10 0.19 0.19 0.08 0.08 0.17 0.12 0.08 0.11 0.24 0.15 0.22 0.11 0.10 0.06 0.03 0.02 0.04 0.03 0.03 0.02 0.01 0.01 0.01 0.01 0.01 0.00 0.01 0.04
1.54 1.42 1.05 0.46 0.73 0.44 0.27 0.23 0.12 0.16 0.09 0.04 0.07 0.03 0.01 0.01 0.00 0.02 0.03 0.06 0.08 0.09 0.11 0.20 0.24 0.21 0.16 0.12 0.13 0.17 0.23 0.20 0.27 0.40 0.18 0.17 0.22 0.32 0.15 0.08 0.04 0.02 0.02 0.06 0.21 0.13 0.09 0.07 0.04 0.06 0.12 0.20 0.08 0.22 0.12 0.13 0.39 0.34 0.19 0.13 0.14 0.25 0.16 0.21 0.23 0.41 0.19 0.11 0.26 0.16 0.17 0.08 0.09 0.08 0.03 0.02 0.04 0.04 0.01 0.01 0.01 0.01 0.02 0.02 0.03
1.41 1.17 0.81 0.50 0.54 0.82 0.69 0.87 0.98 0.51 0.13 0.19 0.17 0.22 0.13 0.02 0.03 0.04 0.05 0.11 0.22 0.23 0.26 0.30 0.30 0.24 0.17 0.14 0.19 0.15 0.25 0.26 0.49 0.50 0.40 0.22 0.33 0.26 0.06 0.03 0.03 0.11 0.04 0.31 0.26 0.30 0.27 0.29 0.28 0.22 0.26 0.32 0.34 0.46 0.32 0.50 0.35 0.28 0.17 0.12 0.06 0.15 0.12 0.10 0.08 0.11 0.29 0.16 0.25 0.26 0.19 0.17 0.18 0.31 0.18 0.02 0.05 0.02 0.04 0.05 0.08 0.03 0.03 0.04 0.04
1.18 0.96 0.64 0.58 0.43 1.15 1.00 0.95 0.89 0.56 0.66 0.60 0.36 0.33 0.28 0.15 0.13 0.16 0.31 0.31 0.33 0.39 0.40 0.37 0.29 0.23 0.18 0.15 0.10 0.26 0.41 0.35 0.32 0.46 0.32 0.12 0.11 0.08 0.04 0.08 0.09 0.18 0.08 0.18 0.18 0.23 0.29 0.30 0.40 0.50 0.69 0.42 0.24 0.26 0.56 0.40 0.37 0.13 0.06 0.04 0.06 0.17 0.11 0.08 0.26 0.13 0.16 0.14 0.14 0.64 0.52 0.33 0.15 0.14 0.04 0.02 0.06 0.05 0.05 0.08 0.07 0.06 0.05 0.09 0.17
2.59 1.81 1.66 1.29 1.39 1.37 1.37 1.61 1.69 1.01 0.53 0.88 0.73 0.29 0.45 0.38 0.40 0.49 0.43 0.56 0.65 0.41 0.42 0.25 0.11 0.15 0.14 0.08 0.35 0.30 0.44 0.21 0.08 0.11 0.25 0.14 0.15 0.20 0.26 0.23 0.19 0.17 0.28 0.26 0.16 0.18 0.24 0.24 0.39 0.36 0.60 0.40 0.10 0.28 0.13 0.25 0.19 0.19 0.21 0.11 0.37 0.11 0.06 0.11 0.19 0.08 0.24 0.20 0.51 0.43 0.58 0.28 0.25 0.14 0.08 0.07 0.05 0.07 0.06 0.06 0.04 0.04 0.04 0.05 0.17
2.97 2.30 2.01 2.31 1.57 1.60 1.80 1.62 1.79 1.76 1.20 1.93 2.35 1.06 0.95 1.24 1.27 1.05 0.87 0.90 0.67 0.61 0.27 0.24 0.11 0.05 0.07 0.10 0.18 0.42 0.36 0.27 0.12 0.15 0.17 0.22 0.49 0.19 0.18 0.14 0.39 0.34 0.19 0.18 0.22 0.32 0.22 0.49 0.64 0.32 0.20 0.18 0.24 0.24 0.06 0.03 0.08 0.13 0.07 0.06 0.08 0.40 0.17 0.14 0.21 0.13 0.38 0.32 0.28 0.35 0.59 0.33 0.15 0.11 0.06 0.05 0.03 0.03 0.06 0.08 0.10 0.08 0.04 0.11 0.06
2.40 1.89 2.16 3.36 2.77 2.67 3.20 2.65 1.77 1.80 2.13 2.00 2.25 1.92 1.29 0.91 0.80 0.78 0.71 0.60 0.54 0.35 0.21 0.15 0.12 0.07 0.07 0.10 0.28 0.56 0.23 0.39 0.24 0.47 0.20 0.11 0.28 0.26 0.13 0.27 0.38 0.19 0.24 0.11 0.14 0.35 0.27 0.22 0.24 0.14 0.25 0.37 0.37 0.32 0.12 0.07 0.05 0.05 0.03 0.02 0.03 0.27 0.27 0.14 0.30 0.11 0.24 0.54 0.28 0.35 0.23 0.13 0.08 0.05 0.03 0.04 0.04 0.08 0.08 0.06 0.10 0.10 0.12 0.16 0.22
4.04 3.31 3.23 3.70 3.36 2.59 2.46 3.29 2.56 2.01 1.99 2.87 2.62 1.97 1.76 1.11 0.84 0.58 0.41 0.45 0.30 0.36 0.24 0.20 0.14 0.09 0.07 0.09 0.32 0.45 0.47 0.31 0.58 0.52 0.09 0.00 0.00 0.06 0.18 0.19 0.30 0.37 0.27 0.21 0.24 0.28 0.29 0.29 0.35 0.70 0.75 0.78 0.75 0.65 0.27 0.16 0.14 0.06 0.11 0.06 0.22 0.36 0.59 0.57 0.51 0.43 0.42 0.42 0.41 0.27 0.09 0.07 0.07 0.06 0.06 0.07 0.07 0.08 0.05 0.19 0.32 0.30 0.14 0.17 0.14
4.28 4.03 4.25 3.92 4.07 2.93 3.24 3.99 2.98 2.55 3.09 3.36 3.04 2.71 1.61 1.34 1.28 1.17 0.55 0.72 0.74 0.42 0.27 0.31 0.28 0.39 0.17 0.30 0.62 0.21 0.25 0.63 0.07 0.05 0.00 0.00 0.00 0.02 0.18 0.34 0.27 0.28 0.13 0.20 0.24 0.23 0.46 0.62 0.56 0.95 1.19 1.23 0.87 0.48 0.18 0.18 0.21 0.11 0.09 0.04 0.05 0.10 0.36 0.65 0.55 0.51 0.51 0.60 0.26 0.13 0.06 0.06 0.17 0.17 0.08 0.10 0.27 0.17 0.40 0.86 0.67 0.33 0.13 0.13 0.11
5.22 5.19 4.59 4.46 3.46 2.36 2.36 2.50 2.33 2.64 2.87 3.40 2.95 1.79 1.84 1.04 1.12 1.48 1.04 0.91 0.80 0.55 0.56 0.62 0.39 0.43 0.20 0.29 0.34 0.53 0.33 0.11 0.06 0.05 0.00 0.01 0.01 0.02 0.05 0.16 0.31 0.30 0.45 0.81 0.58 0.49 0.46 0.50 1.08 1.21 0.71 0.73 0.53 0.67 0.50 0.26 0.21 0.29 0.37 0.81 0.57 0.42 0.66 0.75 0.56 0.52 0.37 0.18 0.15 0.19 0.10 0.49 0.32 0.16 0.12 0.29 0.22 0.37 0.51 0.67 0.96 0.74 0.24 0.19 0.08
6.05 4.86 4.03 4.44 3.73 2.59 2.91 2.85 2.68 3.00 2.98 2.70 2.14 2.52 1.77 1.66 1.41 1.86 1.54 1.47 1.29 0.88 0.47 0.40 0.43 0.30 0.26 0.41 0.49 0.27 0.45 0.13 0.03 0.01 0.00 0.00 0.00 0.00 0.03 0.29 0.47 0.18 0.43 0.35 0.32 0.61 0.86 1.35 1.10 0.66 0.62 0.49 0.34 0.20 0.19 0.27 0.27 0.22 0.56 0.68 0.24 0.41 0.82 0.90 0.62 0.60 0.59 0.51 0.41 0.30 0.19 0.34 0.20 0.17 0.09 0.15 0.21 0.19 0.86 1.02 0.94 0.45 0.35 0.28 0.13
3.74 3.43 4.70 4.75 3.31 2.79 2.80 3.04 3.50 4.43 4.29 3.12 2.35 2.36 2.15 2.00 1.90 2.17 1.95 1.47 1.22 0.87 0.51 0.41 0.40 0.49 0.47 0.52 0.30 0.33 0.10 0.04 0.01 0.01 0.01 0.02 0.01 0.02 0.04 0.25 0.33 0.21 0.46 0.64 0.78 1.01 0.86 1.14 1.25 1.11 0.94 0.50 0.31 0.28 0.51 0.76 0.57 0.51 0.60 0.56 0.29 0.23 0.40 0.36 0.26 0.19 0.37 0.34 0.43 0.43 0.27 0.29 0.23 0.34 0.50 0.37 0.31 0.70 1.45 1.12 0.49 0.40 0.68 0.57 0.39
2.12 2.90 3.40 3.35 2.89 2.67 2.79 3.71 3.38 3.18 3.07 3.23 3.11 3.33 3.29 3.26 2.76 2.68 1.94 1.29 0.89 0.83 0.67 0.56 0.42 1.07 0.98 0.87 0.58 0.55 0.18 0.31 0.07 0.05 0.04 0.03 0.03 0.03 0.05 0.13 0.29 0.34 0.82 0.89 0.64 1.10 1.19 1.36 1.30 0.93 0.67 0.72 0.73 0.27 0.26 0.24 0.46 0.37 0.59 0.48 0.38 0.43 0.75 0.80 0.36 0.45 0.57 0.41 0.34 0.23 0.23 0.14 0.06 0.09 0.53 0.50 0.49 1.21 2.01 1.60 0.20 0.77 1.26 1.12 0.56
3.10 3.29 3.39 2.84 3.79 2.94 3.37 3.13 3.77 4.12 3.22 3.18 3.16 3.50 3.61 3.24 3.55 3.28 2.59 2.06 2.11 2.44 2.14 0.95 1.78 2.18 1.68 0.82 0.42 0.23 0.13 0.11 0.27 0.35 0.35 0.03 0.05 0.06 0.09 0.39 0.43 0.58 0.63 1.14 1.33 1.07 0.72 0.81 0.17 0.37 0.57 0.36 0.05 0.18 0.09 0.25 0.60 0.88 0.69 0.51 0.24 0.67 0.99 0.92 0.78 0.44 0.39 0.41 0.32 0.17 0.13 0.14 0.18 0.12 0.19 0.60 2.07 2.22 2.68 0.83 0.31 0.89 1.58 1.44 0.97
2.23 2.54 2.54 2.16 2.20 2.10 2.38 2.83 3.24 3.98 4.20 3.15 3.37 3.94 3.40 3.04 2.90 2.89 2.67 2.48 2.66 3.13 3.10 2.94 4.87 3.92 2.63 2.09 0.76 0.44 0.35 0.78 0.73 0.84 1.32 1.02 1.04 0.89 0.37 0.42 0.64 0.57 0.73 1.44 1.94 0.49 0.70 0.32 0.34 0.37 0.32 0.09 0.12 0.18 0.07 0.15 0.55 0.52 0.94 1.27 1.13 1.15 0.93 0.99 0.87 0.74 0.57 0.36 0.36 0.40 0.35 0.19 0.17 0.16 0.18 0.27 0.56 1.25 1.39 1.06 0.95 2.02 2.26 1.49 1.07
1.73 1.73 1.73 1.67 1.73 1.84 1.79 1.62 1.84 2.46 2.34 3.18 4.72 4.28 4.85 4.83 4.47 3.52 3.42 3.96 3.89 3.66 4.06 4.70 4.47 3.37 2.46 2.04 1.83 1.60 1.56 1.18 1.38 0.58 0.82 1.30 0.70 1.04 1.36 0.41 0.51 0.53 0.55 0.73 0.93 1.10 0.90 0.51 0.46 0.35 0.09 0.37 0.34 0.07 0.03 0.07 0.12 0.06 0.23 0.57 0.95 1.65 0.90 0.88 0.65 0.91 0.79 0.58 0.55 0.32 0.23 0.18 0.17 0.14 0.18 0.23 0.16 0.32 0.19 0.85 1.71 2.25 1.71 1.80 1.10
1.40 1.61 1.72 1.28 1.32 1.38 1.71 1.95 1.74 1.36 1.48 1.91 2.10 2.67 3.25 3.42 4.31 4.49 4.36 4.63 5.27 5.50 4.56 4.30 3.73 3.08 3.03 2.73 2.94 3.68 3.69 3.01 2.72 1.63 1.43 1.64 0.97 1.15 1.38 1.05 0.47 0.36 0.63 0.87 0.83 1.14 1.26 1.07 0.53 0.37 0.47 0.18 0.09 0.09 0.08 0.07 0.05 0.05 0.10 0.38 0.41 0.80 1.28 1.12 1.15 0.80 0.47 0.35 0.44 0.24 0.30 0.34 0.71 0.50 0.76 0.60 0.58 0.65 0.53 0.67 1.29 1.99 1.91 1.53 1.13
0.94 1.17 1.47 1.33 1.46 1.55 2.19 1.97 1.61 1.50 1.72 1.75 1.57 1.20 1.24 1.59 2.36 2.27 3.06 4.09 5.17 6.54 6.43 4.65 4.56 3.93 3.59 3.61 3.64 3.23 3.24 2.46 3.04 2.26 2.48 2.42 1.86 1.70 1.60 0.63 0.62 0.51 1.12 1.11 1.33 1.24 1.00 1.34 0.87 0.37 0.23 0.23 0.21 0.20 0.15 0.14 0.11 0.13 0.09 0.15 0.26 1.43 2.94 3.07 2.08 1.34 0.56 0.55 0.57 0.35 0.39 0.48 0.68 0.94 0.81 0.81 0.94 0.40 0.63 0.89 1.43 1.84 1.70 1.54 1.33
0.76 0.83 0.96 1.47 1.27 1.45 1.69 1.85 2.55 3.58 3.41 1.50 1.29 1.28 1.36 1.46 1.83 2.22 2.42 3.28 4.37 3.98 3.15 3.27 3.67 4.03 4.36 4.22 4.38 3.77 3.39 3.16 2.42 3.05 1.59 1.53 1.14 0.90 0.80 0.88 1.64 2.26 2.06 2.65 1.91 1.40 1.14 1.32 0.90 0.76 0.79 0.60 0.65 0.44 0.22 0.18 0.16 0.19 0.12 0.18 0.45 1.68 3.04 4.41 3.81 2.66 1.12 0.77 0.57 0.55 0.66 0.67 0.71 1.47 1.90 1.03 1.08 0.91 1.02 1.15 1.23 1.88 1.58 1.37 1.20
0.25 0.43 0.37 0.54 0.82 0.85 0.90 1.24 2.31 2.64 1.37 0.93 0.90 0.81 0.93 0.93 1.26 1.98 1.25 1.26 2.10 2.69 3.80 3.02 2.90 2.94 3.21 3.61 4.11 3.99 4.14 3.38 3.45 3.42 2.35 1.39 1.41 1.13 1.16 1.99 1.66 3.31 1.79 1.25 1.71 1.66 1.66 1.50 1.05 0.82 0.71 0.67 0.37 0.27 0.22 0.18 0.22 0.14 0.34 0.38 0.34 1.59 3.75 3.71 6.08 5.26 2.58 0.87 0.53 0.53 0.55 0.48 0.56 0.45 0.55 0.55 0.52 0.90 1.22 1.05 1.33 1.76 1.19 1.01 1.19
0.09 0.15 0.28 0.26 0.35 0.37 0.42 1.11 2.49 1.78 0.93 0.77 1.01 0.85 0.87 0.94 1.13 1.19 0.98 1.07 1.11 1.29 1.27 1.72 1.87 2.15 2.27 2.49 3.49 4.47 3.99 3.16 3.22 2.96 2.32 1.71 1.32 0.99 0.80 0.76 1.20 1.98 1.50 1.49 0.88 0.78 0.94 0.57 0.66 1.10 0.70 0.36 0.24 0.38 0.73 0.76 0.72 0.43 0.30 0.28 0.37 0.96 2.35 3.10 3.46 5.14 2.42 0.95 0.80 0.69 0.54 0.65 0.49 0.50 0.39 0.29 0.38 0.64 0.57 0.84 1.11 0.87 0.66 0.63 0.51
0.10 0.10 0.14 0.18 0.14 0.12 0.10 0.13 0.22 0.51 0.31 0.34 0.31 0.44 0.60 1.14 0.94 1.15 0.77 0.51 0.52 0.78 0.97 0.77 1.00 1.37 1.82 1.73 1.56 1.30 1.50 1.58 1.51 1.88 2.55 1.11 0.82 0.53 0.36 0.30 1.12 1.80 1.10 1.25 0.59 0.49 0.55 1.40 1.29 0.68 0.81 0.91 1.05 0.87 1.23 0.87 0.52 0.50 0.54 0.55 0.54 1.00 2.38 2.69 2.00 2.88 2.10 0.67 0.74 0.90 1.14 1.51 0.87 0.68 0.67 0.62 0.73 0.76 0.99 1.06 0.85 0.73 0.56 0.33 0.21
0.03 0.05 0.05 0.06 0.13 0.07 0.06 0.05 0.04 0.02 0.06 0.07 0.09 0.27 0.59 0.42 0.53 0.82 1.12 0.63 0.71 1.21 1.43 1.45 1.30 0.89 0.52 0.85 1.38 1.57 1.55 1.21 0.91 1.11 1.46 1.08 1.00 0.73 0.46 1.27 1.17 1.42 1.77 1.25 0.85 1.09 0.47 1.25 1.46 0.63 0.47 0.57 0.42 0.58 0.90 0.73 0.74 0.60 0.64 0.58 0.58 0.99 0.92 1.21 1.32 2.12 1.40 0.66 0.55 0.57 1.36 1.19 1.07 0.65 0.78 0.92 1.24 1.48 1.53 1.00 0.57 0.35 0.44 0.42 0.46
0.40 0.43 0.55 0.62 0.70 0.78 1.02 0.84 0.21 0.01 0.02 0.03 0.07 0.09 0.44 0.79 0.76 0.62 0.43 0.42 0.48 0.29 0.38 0.39 0.38 0.37 0.50 1.23 1.84 1.93 1.36 0.84 0.92 0.96 1.04 1.02 0.91 1.10 0.71 0.61 0.65 0.86 0.76 0.67 1.01 0.79 2.26 1.83 1.43 1.55 0.92 0.76 1.00 0.63 0.38 0.30 0.37 0.34 0.69 0.93 0.74 0.84 0.61 0.54 0.98 1.42 0.71 0.92 0.99 1.05 1.51 1.40 1.05 0.72 0.98 1.32 1.14 0.80 0.63 0.45 0.46 0.61 0.48 0.62 0.70
1.02 0.98 0.76 0.83 0.63 0.68 0.49 0.16 0.10 0.37 0.37 0.93 1.08 1.04 0.40 0.30 0.37 0.45 0.29 0.21 0.18 0.24 0.23 0.34 0.36 0.50 0.98 1.20 1.39 0.45 0.27 0.31 0.51 0.39 0.70 0.82 0.97 1.07 0.58 0.65 0.47 0.41 0.64 0.69 0.59 0.76 1.77 1.70 1.92 1.13 1.22 0.82 0.71 0.52 0.35 0.31 0.55 0.62 0.62 0.68 0.51 1.28 0.70 0.72 0.90 1.03 0.67 1.31 0.79 1.21 1.08 0.71 0.76 0.92 1.07 1.08 0.47 0.29 0.28 0.29 0.33 0.74 0.50 0.59 0.44
0.41 0.40 0.40 0.38 0.21 0.32 0.12 0.08 0.08 0.08 0.32 0.55 0.63 0.24 0.03 0.03 0.08 0.10 0.13 0.10 0.09 0.07 0.04 0.16 0.28 0.35 0.48 0.20 0.20 0.20 0.25 0.57 0.51 0.35 0.23 0.44 0.50 0.67 0.62 0.72 0.60 0.83 0.85 1.41 1.76 2.76 1.73 0.85 0.65 0.48 0.20 0.29 0.50 0.37 0.70 0.92 0.73 0.70 0.44 0.35 0.34 0.54 0.55 0.64 0.61 1.11 0.37 0.57 0.71 1.29 1.33 1.42 1.14 0.97 0.51 0.61 0.22 0.25 0.25 0.30 0.47 0.56 0.70 0.75 0.48
0.57 0.53 0.47 0.31 0.18 0.21 0.14 0.11 0.09 0.08 0.09 0.03 0.12 0.15 0.08 0.04 0.05 0.07 0.09 0.10 0.20 0.49 0.76 0.84 0.78 0.76 0.73 0.84 0.66 0.59 0.45 0.84 0.59 0.22 0.38 0.56 0.38 0.46 0.73 0.75 1.54 1.11 2.24 3.80 2.31 1.23 0.71 0.58 0.34 0.38 0.43 0.52 0.30 0.09 0.11 0.15 0.13 0.16 0.21 0.24 0.33 0.22 0.15 0.17 0.15 0.26 0.40 0.40 0.93 1.30 1.22 0.80 0.61 0.50 0.57 0.60 0.36 0.35 0.57 0.44 0.43 0.39 0.69 0.57 0.61
1.31 1.21 1.36 1.36 0.97 0.91 1.13 1.06 1.00 0.62 1.01 1.28 1.13 1.22 1.07 0.88 0.44 0.34 0.68 0.75 0.46 0.36 0.40 0.58 0.46 0.64 0.57 0.59 0.77 1.34 1.18 1.40 1.59 1.39 1.57 1.23 1.03 0.57 0.25 0.85 2.06 2.15 2.41 2.25 1.46 0.79 0.62 0.46 0.38 0.53 0.54 0.48 0.42 0.22 0.21 0.61 0.47 0.54 0.27 0.15 0.23 0.15 0.13 0.26 0.46 0.86 0.64 0.33 1.04 0.96 0.63 0.39 0.60 0.93 1.41 1.48 1.21 1.07 0.91 0.59 0.65 0.70 0.51 0.64 0.79
0.68 0.73 1.07 1.09 1.52 1.44 1.10 1.12 1.37 1.88 1.74 1.41 1.54 1.38 0.73 0.52 0.42 0.58 1.02 0.86 1.00 0.95 0.80 0.91 0.97 1.14 1.42 0.85 0.80 1.05 0.92 0.59 0.48 0.24 0.23 0.10 0.09 0.12 0.27 1.11 1.93 2.29 2.45 2.30 0.92 0.83 1.14 1.15 1.21 0.73 0.75 0.57 0.76 0.86 0.59 0.42 0.30 0.34 0.16 0.21 0.13 0.26 0.30 0.40 1.24 0.77 0.26 0.51 0.42 0.47 0.56 0.91 1.43 1.60 1.60 1.17 0.94 0.93 0.77 0.50 0.39 0.40 0.35 0.63 0.60
0.93 0.99 1.21 0.93 1.28 1.93 2.30 2.23 2.02 1.56 1.06 1.77 1.59 1.04 1.18 1.20 0.80 0.52 0.47 0.72 0.95 0.74 0.60 1.02 0.96 1.15 1.38 1.01 0.66 1.25 0.88 0.66 0.70 1.14 2.12 2.18 2.17 2.01 1.71 1.80 2.58 4.04 4.02 3.68 3.25 2.94 2.69 2.23 2.12 1.52 1.43 1.19 1.40 1.61 0.95 0.43 0.13 0.15 0.16 0.32 0.12 0.19 0.22 1.05 0.99 0.65 0.36 0.34 0.34 0.59 1.00 1.13 1.35 1.48 1.31 1.06 1.00 0.82 0.70 0.54 0.32 0.68 0.56 0.33 0.45
1.08 1.05 0.81 0.98 1.62 1.61 1.37 1.53 1.86 2.96 3.12 2.28 1.70 1.74 1.45 1.22 2.05 2.13 0.85 0.51 0.92 1.30 1.31 0.76 0.72 0.39 0.53 0.65 0.97 1.18 0.78 0.41 0.24 0.17 0.26 0.31 0.47 0.53 0.97 1.60 1.78 1.44 2.19 2.38 2.82 2.69 2.07 1.99 1.78 1.69 1.45 0.65 0.40 0.28 0.31 0.67 0.82 0.69 0.41 0.43 0.38 0.47 0.68 0.67 0.91 1.33 1.01 1.09 0.94 1.05 1.23 1.12 1.20 0.91 0.80 0.78 0.93 0.91 0.66 0.67 0.74 0.64 0.66 0.50 0.45
0.98 1.08 1.31 1.29 1.37 1.56 1.45 1.99 2.17 2.26 2.65 2.08 1.85 2.74 2.81 2.35 1.75 1.50 1.59 1.62 2.27 1.76 1.65 1.52 1.61 1.54 1.56 1.46 1.29 1.16 1.55 1.71 1.25 0.56 1.16 1.36 1.08 1.43 2.52 3.36 3.35 3.50 2.42 1.59 1.38 1.06 0.51 0.46 0.40 0.47 0.45 0.78 0.81 1.06 1.21 1.26 0.87 0.76 0.54 0.66 0.70 0.59 0.95 1.22 1.54 1.57 0.68 0.70 0.80 0.87 0.94 0.95 0.75 0.86 0.98 0.90 1.06 0.96 0.87 0.64 0.65 0.82 1.05 0.90 0.84
0.59 0.75 1.05 1.40 1.45 1.29 1.69 2.00 1.79 1.93 1.63 1.96 2.18 3.04 2.94 2.92 2.61 2.03 2.05 1.67 1.87 1.55 1.18 1.10 1.17 1.40 1.27 1.28 0.72 0.75 0.87 1.24 2.14 1.98 2.04 1.88 1.60 2.97 2.62 0.90 0.88 1.36 0.88 0.91 0.80 0.72 0.41 0.36 0.39 0.50 0.54 1.29 1.54 1.31 1.19 1.47 1.39 1.26 1.10 1.27 1.01 1.61 3.13 1.41 1.78 1.58 1.06 0.85 0.75 0.88 1.05 0.91 1.09 1.33 1.21 1.43 1.51 1.27 0.81 0.90 0.81 0.87 0.94 0.71 0.69
0.73 0.82 0.76 0.39 0.79 0.89 0.93 1.51 2.10 1.37 1.72 1.41 1.51 1.60 1.37 1.20 1.06 1.74 1.70 1.60 1.85 2.06 1.30 1.09 1.59 1.91 1.33 1.17 1.40 1.34 0.84 0.84 2.24 3.91 3.20 2.30 1.82 1.98 1.97 1.73 1.12 0.65 0.53 0.57 0.40 0.26 0.33 0.44 0.35 0.60 0.65 1.50 1.43 1.23 1.14 1.17 1.33 1.62 1.76 1.98 3.27 5.73 2.26 1.61 1.90 2.36 1.39 1.14 1.03 1.43 1.35 1.34 1.22 1.49 1.92 2.39 1.44 1.10 1.02 1.27 1.40 1.29 1.23 0.97 1.05
0.60 0.76 0.90 0.89 1.09 1.10 1.00 1.38 1.55 2.04 1.96 1.99 1.76 1.77 1.28 1.07 1.20 1.32 1.20 1.24 1.83 2.43 2.80 2.42 1.92 1.59 1.58 1.31 1.00 2.00 1.98 1.96 1.50 0.82 0.90 1.08 1.01 1.02 1.23 1.39 1.27 1.17 1.09 0.99 0.94 1.01 1.26 1.37 1.07 1.36 1.40 1.64 1.66 2.11 1.60 1.56 1.61 2.32 2.43 2.69 4.43 4.31 1.94 1.52 1.32 1.95 1.28 1.12 1.45 1.67 1.17 1.03 0.98 1.36 1.84 1.92 1.46 1.43 1.59 1.54 1.37 1.32 1.22 1.21 1.30
0.87 1.44 1.69 0.86 0.89 1.55 1.46 1.67 1.20 1.96 2.22 1.10 0.74 0.61 0.75 1.18 1.50 1.84 2.20 2.39 1.92 1.71 1.55 1.75 2.57 3.01 2.62 2.52 2.45 1.90 1.54 2.26 2.20 2.59 1.86 0.84 0.66 0.92 0.82 0.79 1.19 1.06 2.16 1.19 1.48 1.49 1.11 1.17 1.55 1.50 1.40 2.48 2.02 1.83 1.87 1.70 1.45 1.50 2.21 2.67 5.11 3.06 1.47 1.91 1.96 2.33 2.30 1.34 1.07 0.85 0.65 0.67 0.99 1.94 2.59 2.83 2.65 1.89 1.43 1.52 1.59 1.43 1.47 1.34 1.77
1.61 1.70 0.95 0.61 0.66 0.96 1.32 1.59 1.13 0.49 0.43 0.34 0.24 0.20 0.27 0.24 0.37 0.41 1.21 1.78 1.87 1.92 1.92 1.94 1.45 1.37 1.44 1.73 1.98 2.29 3.24 2.97 2.49 1.65 1.89 2.39 1.55 1.15 1.03 1.16 0.97 2.71 1.51 1.27 1.25 1.63 1.35 1.13 1.18 1.28 1.32 2.44 3.28 2.85 2.18 1.65 1.58 1.68 2.45 3.58 4.93 2.69 1.82 1.73 1.23 0.94 0.85 0.91 1.23 1.35 1.42 1.46 2.08 2.53 1.99 2.22 2.79 2.69 2.49 2.20 1.85 1.82 2.69 3.51 3.75
2.61 2.02 1.53 1.10 1.08 1.26 1.64 1.25 0.59 0.42 0.47 0.55 0.70 0.42 0.26 0.40 0.57 0.33 0.26 0.32 0.36 0.39 0.68 0.72 0.81 0.96 1.00 1.13 1.30 1.57 3.89 2.34 2.63 2.13 1.45 1.57 2.07 2.11 1.93 1.24 1.06 1.10 1.59 1.90 1.58 1.29 1.15 1.54 1.43 1.17 1.23 2.45 3.15 3.10 2.18 1.15 1.12 1.56 1.92 3.06 4.13 2.63 1.78 1.26 1.36 2.02 2.03 1.57 1.09 1.31 1.66 1.90 1.96 2.79 3.92 2.68 2.34 2.44 2.41 3.11 3.51 3.61 3.12 3.01 2.81
1.67 2.38 2.49 2.59 2.74 2.89 1.80 2.21 1.81 2.31 1.16 1.18 1.19 0.64 0.61 1.55 1.66 2.05 1.61 1.37 1.10 0.50 0.34 0.41 0.55 0.69 0.70 0.66 0.67 0.77 0.98 1.20 1.44 1.59 1.64 1.50 1.76 2.12 2.46 2.12 1.24 1.14 1.42 1.49 1.23 1.21 1.00 0.99 1.28 1.21 1.32 1.28 1.71 3.05 3.89 2.78 1.69 1.44 2.04 4.06 3.09 1.64 1.87 1.86 1.71 1.35 1.74 2.32 2.47 2.44 2.24 2.08 2.19 2.70 3.26 4.22 3.53 2.43 2.86 3.50 3.13 2.69 3.18 3.10 3.06
0.68 1.93 2.36 1.79 1.66 2.03 2.75 3.21 3.14 2.63 1.48 1.51 1.34 1.99 2.51 1.91 1.19 1.13 1.62 1.46 1.02 1.12 0.84 0.43 0.69 0.30 0.41 0.39 0.39 0.44 0.58 0.75 0.94 1.18 1.34 1.23 1.32 1.44 1.55 2.07 1.98 1.71 1.79 2.35 2.24 2.29 2.40 1.78 1.23 1.68 1.89 1.69 1.80 2.71 2.95 2.96 4.34 4.01 2.47 2.19 2.43 2.44 1.71 1.94 2.42 2.14 2.36 2.27 1.81 2.51 3.06 3.50 3.35 2.94 2.61 2.57 2.70 3.70 2.79 2.38 2.26 2.24 1.65 1.76 1.95
1.40 1.39 1.76 1.70 1.52 1.46 2.08 2.12 1.17 1.65 1.79 1.32 1.29 1.24 1.92 2.56 2.14 1.09 0.68 0.31 0.20 0.15 0.16 0.20 0.19 0.39 0.14 0.16 0.21 0.28 0.63 1.33 1.75 1.63 1.80 1.06 1.12 1.11 1.18 1.32 1.32 1.13 1.04 1.01 1.06 1.10 1.33 1.93 2.06 1.77 1.84 2.11 2.30 2.54 3.72 2.97 2.60 3.16 3.62 3.19 2.76 3.36 3.62 3.29 2.73 2.18 2.66 3.17 3.24 2.86 2.84 3.56 2.84 2.35 1.92 1.65 1.82 2.10 2.01 1.63 1.99 1.55 1.42 1.46 1.17
0.92 1.13 1.53 1.48 1.73 1.59 1.83 2.57 2.49 2.56 2.33 2.61 2.93 2.68 2.74 2.64 2.34 2.32 1.97 2.21 1.17 0.51 0.38 0.33 0.39 0.47 0.50 0.29 0.26 0.31 0.57 1.46 1.48 0.74 0.68 0.62 0.64 0.78 0.89 0.87 0.92 1.12 1.41 1.67 1.45 1.09 1.30 1.45 1.30 1.20 1.01 1.32 1.39 1.93 2.60 3.46 2.16 2.70 2.76 2.72 2.89 3.03 2.98 2.50 2.67 3.29 3.20 3.14 4.09 3.14 2.08 1.22 1.21 1.35 1.30 1.32 1.37 1.54 1.72 1.67 1.42 1.48 1.74 1.67 1.37
1.13 0.97 0.80 0.77 0.95 0.94 1.04 1.60 2.16 1.47 1.90 2.57 2.16 1.36 1.09 1.46 0.98 1.48 1.79 1.75 1.40 0.92 0.76 1.02 0.94 1.09 1.16 1.02 0.92 0.85 1.08 1.39 1.71 1.22 0.69 0.66 0.63 0.80 0.90 0.70 0.65 0.59 0.64 0.75 0.79 0.93 1.30 1.85 1.48 1.41 1.29 1.62 1.60 1.86 1.84 2.76 3.73 2.60 2.31 1.97 1.82 1.65 1.63 1.33 1.26 1.44 1.86 2.02 2.41 2.72 2.30 1.67 1.61 1.47 1.48 1.62 1.73 1.69 1.60 1.97 1.75 1.95 1.72 1.57 1.42
0.94 0.78 0.89 1.10 0.99 1.11 1.02 1.22 1.57 1.38 1.37 1.51 2.05 3.00 3.33 2.50 2.62 2.47 2.35 2.03 1.70 1.92 2.24 2.49 2.53 2.54 2.06 2.24 1.74 1.73 1.79 1.54 1.95 2.37 1.38 1.28 1.20 1.46 1.36 1.13 0.73 0.55 0.58 0.66 0.88 0.90 0.95 1.01 1.48 1.77 1.44 1.08 1.50 1.36 1.13 1.22 2.15 2.48 2.26 1.49 1.57 1.59 1.77 2.25 2.34 2.63 2.35 1.90 1.25 1.27 1.30 1.58 1.44 1.21 1.24 1.36 1.48 1.33 1.52 1.48 1.25 1.41 1.59 1.54 1.49
0.96 0.91 0.74 0.67 0.88 1.10 1.37 1.40 1.96 1.67 1.61 1.68 1.53 1.83 1.78 1.71 1.40 1.25 1.32 1.88 1.97 1.86 1.67 2.18 3.02 2.84 3.02 2.66 2.21 1.97 1.77 1.45 2.02 2.46 2.62 1.49 1.73 1.63 1.51 1.13 0.72 0.81 1.09 1.08 1.20 1.23 1.63 2.07 2.15 1.58 0.98 0.99 0.81 0.94 1.79 0.98 0.78 0.98 1.70 1.49 1.00 0.71 0.64 0.63 0.69 0.77 0.93 1.10 0.98 0.81 0.82 0.99 0.88 1.42 1.33 1.27 1.36 1.24 1.69 1.35 1.58 1.56 0.99 1.39 1.20
0.90 1.15 1.04 1.41 1.84 1.09 0.90 0.80 0.85 1.28 1.92 1.98 1.85 1.82 2.01 2.08 2.36 2.21 1.79 1.52 1.68 2.67 2.04 2.23 1.99 1.67 1.35 1.36 1.53 1.44 1.48 1.33 1.45 1.87 2.84 2.60 1.75 1.15 1.02 1.26 1.09 1.20 1.55 1.36 1.58 1.23 1.27 1.04 1.19 1.64 1.64 1.06 1.01 0.85 0.70 0.90 0.60 0.51 0.67 0.94 1.20 1.00 0.64 0.54 0.55 0.60 0.86 0.69 0.78 0.70 0.59 0.67 0.59 0.71 0.83 0.73 0.70 0.81 0.83 0.60 0.61 0.71 1.08 0.96 0.79
0.54 0.53 0.48 0.58 0.75 0.90 0.72 0.88 0.99 1.03 0.98 0.95 1.16 1.53 1.63 1.50 2.36 3.07 2.20 2.20 1.65 1.26 1.31 1.17 1.04 1.01 0.88 0.93 1.08 1.10 1.11 1.04 1.31 0.97 1.58 2.18 2.09 1.45 0.97 1.02 0.98 0.70 1.06 1.41 1.34 1.42 1.39 1.31 1.12 1.22 1.01 1.11 1.08 0.75 0.80 0.93 0.93 0.78 0.60 0.67 0.60 0.43 0.36 0.30 0.26 0.20 0.36 0.47 0.62 0.63 0.56 0.58 0.60 0.57 0.65 0.55 0.50 0.45 0.43 0.47 0.63 0.56 0.71 0.55 0.61